• Processing (Info)

  • MPEC 2015-C87 : 2015 CV13

    The following Minor Planet Electronic Circular may be linked-to from your own Web pages, but must not otherwise be redistributed electronically.

    A form allowing access to any MPEC is at the bottom of this page.


    Read MPEC 2015-C86 Read MPEC 2015-C88


    M.P.E.C. 2015-C87                                Issued 2015 Feb. 15, 20:23 UT
    
         The Minor Planet Electronic Circulars contain information on unusual
             minor planets and routine data on comets.  They are published
       on behalf of Commission 20 of the International Astronomical Union by the
              Minor Planet Center, Smithsonian Astrophysical Observatory,
                              Cambridge, MA 02138, U.S.A.
    
                 Prepared using the Tamkin Foundation Computer Network
    
                                  MPC@CFA.HARVARD.EDU
                URL https://www.minorplanetcenter.net/    ISSN 1523-6714
    
                                       2015 CV13
    
    Observations:
         K15C13V* C2015 02 13.26980 09 27 55.78 +28 15 46.8          19.4 VqEC087G96
         K15C13V  C2015 02 13.27288 09 27 55.38 +28 15 53.7          19.3 VqEC087G96
         K15C13V  C2015 02 13.27596 09 27 55.00 +28 16 00.6          19.5 VqEC087G96
         K15C13V  C2015 02 13.27905 09 27 54.62 +28 16 07.6          19.6 VqEC087G96
         K15C13V  C2015 02 13.42141 09 27 36.71 +28 21 22.5          19.8 VqEC087G96
         K15C13V  C2015 02 13.42190 09 27 36.64 +28 21 23.8          19.9 VqEC087G96
         K15C13V  C2015 02 13.42240 09 27 36.59 +28 21 24.9          19.8 VqEC087G96
         K15C13V  C2015 02 13.42290 09 27 36.53 +28 21 26.0          19.7 VqEC087G96
         K15C13V  C2015 02 13.77275 09 26 56.91 +28 34 16.8          18.5 VMEC087033
         K15C13V  C2015 02 13.77735 09 26 56.35 +28 34 27.1          18.5 VMEC087033
         K15C13V  C2015 02 13.86419 09 26 45.66 +28 37 43.1          18.5 VMEC087033
         K15C13V  C2015 02 13.86879 09 26 45.10 +28 37 53.4          18.6 VMEC087033
         K15C13V  C2015 02 13.88237 09 26 43.38 +28 38 25.1                qEC087246
         K15C13V  C2015 02 13.88396 09 26 43.21 +28 38 28.5                qEC087246
         K15C13V  C2015 02 13.88498 09 26 43.11 +28 38 31.1                qEC087246
         K15C13V  C2015 02 13.88529 09 26 43.02 +28 38 31.5                qEC087246
         K15C13V  C2015 02 13.88567 09 26 42.98 +28 38 31.8                qEC087246
         K15C13V  C2015 02 13.88666 09 26 42.86 +28 38 34.7                qEC087246
         K15C13V  C2015 02 13.98695 09 26 30.30 +28 42 17.4          19.8 VMEC087033
         K15C13V  C2015 02 13.99155 09 26 29.73 +28 42 27.6          19.8 VMEC087033
         K15C13V  C2015 02 14.11650 09 26 16.17 +28 47 07.0          20.2 VqEC087G96
         K15C13V  C2015 02 14.11699 09 26 16.14 +28 47 08.0          20.1 VqEC087G96
         K15C13V  C2015 02 14.11749 09 26 16.09 +28 47 09.0          20.1 VqEC087G96
         K15C13V  C2015 02 14.11799 09 26 16.01 +28 47 10.4          20.2 VqEC087G96
         K15C13V !C2015 02 14.22915 09 26 02.20 +28 51 19.8          19.0 RtEC087673
         K15C13V !C2015 02 14.23477 09 26 01.51 +28 51 32.4                tEC087673
         K15C13V KC2015 02 14.30372 09 25 52.14 +28 54 05.7          19.9 RqEC087H36
         K15C13V KC2015 02 14.31043 09 25 51.28 +28 54 20.2          19.5 RqEC087H36
         K15C13V KC2015 02 15.81297 09 22 49.97 +29 49 40.4                qEC087J95
         K15C13V KC2015 02 15.81879 09 22 49.30 +29 49 53.3                qEC087J95
         K15C13V KC2015 02 15.82489 09 22 48.53 +29 50 07.4          19.8 RqEC087J95
    
    Observer details:
    033 Karl Schwarzschild Observatory, Tautenburg.  Observer B. Stecklum.  1.34-m
        f/4 Schmidt + CCD.
    246 Klet Observatory-KLENOT.  Observers J. Ticha, M. Tichy, M. Kocer.
        Measurer M. Tichy.  1.06-m KLENOT Telescope + CCD.
    673 Table Mountain Observatory, Wrightwood.  Observer J. Pittichova.  0.60-m
        f/16 Ritchey-Chretien + CCD.
    G96 Mt. Lemmon Survey.  Observer A. R. Gibbs.  Measurers E. J. Christensen,
        D. C. Fuls, A. R. Gibbs, A. D. Grauer, R. E. Hill, J. A. Johnson,
        R. A. Kowalski, S. M. Larson, R. G. Matheny, F. C. Shelly.  1.5-m
        reflector + CCD.
    H36 Sandlot Observatory, Scranton.  Observer G. Hug.  0.56-m reflector + CCD.
    J95 Great Shefford.  Observer P. Birtwhistle.  0.40-m f/6.0 Schmidt-Cassegrain
        + CCD.
    
    Orbital elements:
    2015 CV13                                           PHA, Earth MOID = 0.0108 AU
    Epoch 2014 Dec. 9.0 TT = JDT 2457000.5                  MPC
    M 235.35965              (2000.0)            P               Q
    n   0.63648128     Peri.  132.12965     -0.21129287     +0.95997906
    a   1.3384813      Node   124.76491     -0.94976216     -0.15722114
    e   0.2886168      Incl.   12.93120     -0.23088343     -0.23177947
    P   1.55           H   20.0           G   0.15           U   8
    Residuals in seconds of arc
    150213 G96  0.1-  0.1-    150213 033  0.0   0.0     150214 G96  0.1+  0.1-
    150213 G96  0.3-  0.1-    150213 246  0.1-  0.4+    150214 G96  0.1-  0.1+
    150213 G96  0.1-  0.1-    150213 246  0.3+  0.2+    150214 673  0.1+  0.6-
    150213 G96  0.0   0.0     150213 246  0.7+  0.6+    150214 673  0.5+  0.7-
    150213 G96  0.0   0.3-    150213 246  0.0   0.3+    150214 H36  0.5-  0.1+
    150213 G96  0.2-  0.0     150213 246  0.1+  0.3-    150214 H36  0.6-  0.2-
    150213 G96  0.0   0.0     150213 246  0.2+  0.4+    150215 J95  0.5-  0.0
    150213 G96  0.0   0.0     150213 033  0.1+  0.1+    150215 J95  0.3+  0.2-
    150213 033  0.1+  0.1+    150213 033  0.2+  0.1+    150215 J95  0.3+  0.2+
    150213 033  0.1+  0.0     150214 G96  0.4-  0.1+
    150213 033  0.1-  0.1+    150214 G96  0.0   0.0
    
    Ephemeris:
    2015 CV13                a,e,i = 1.34, 0.29, 13                  q = 0.9522
    Date    TT    R. A. (2000) Decl.     Delta      r     Elong.  Phase     V
    2015 01 16    10 01 15.3 +13 38 38   0.5780  1.5042   147.7    20.5    20.7
    ...
    2015 01 31    09 49 33.7 +20 22 15   0.4740  1.4498   166.1     9.4    19.8
    ...
    2015 02 08    09 37 39.5 +25 00 54   0.4373  1.4188   169.7     7.1    19.5
    ...
    2015 02 14    09 26 29.0 +28 42 53   0.4190  1.3947   163.8    11.4    19.5
    2015 02 15    09 24 28.5 +29 19 53   0.4167  1.3906   162.4    12.4    19.6
    2015 02 16    09 22 26.2 +29 56 42   0.4147  1.3865   161.0    13.4    19.6
    ...
    2015 02 22    09 09 46.9 +33 30 21   0.4065  1.3615   152.0    19.9    19.7
    ...
    2015 03 02    08 53 11.4 +37 41 25   0.4056  1.3273   140.0    28.7    19.9
    ...
    2015 03 17    08 30 20.3 +43 13 55   0.4233  1.2613   120.1    43.0    20.3
    
    A. U. Tomatic                (C) Copyright 2015 MPC           M.P.E.C. 2015-C87
    

    Read MPEC 2015-C86 Read MPEC 2015-C88


    MPEC number:

    Enter an MPEC number in one of the following forms:

    • 1997-B01 (the full form)
    • J97B01 (the packed version of the full form)
    • B01 (the abbreviated form)